This is the latest recevied weather packets stored in our database for station/object HK6RM-20. If no packets are shown the sender has not sent any weather packets the latest 10 day(s).
| Time | Temp. | Humidity | Pressure | Rain* | Wind** | Luminosity | Snow |
|---|---|---|---|---|---|---|---|
| 1777589195 | 27.22° C | 60% | 1006 hPa | 0 mm | - | - | - |
| 1777588414 | 27.78° C | 60% | 1006 hPa | 0 mm | - | - | - |
| 1777587632 | 28.33° C | 60% | 1005 hPa | 0 mm | - | - | - |
| 1777586851 | 28.89° C | 60% | 1005 hPa | 0 mm | - | - | - |
| 1777586070 | 29.44° C | 60% | 1004 hPa | 0 mm | - | - | - |
| 1777585287 | 30° C | 60% | 1004 hPa | 0 mm | - | - | - |
| 1777584506 | 28.89° C | 50% | 1004 hPa | 0 mm | - | - | - |
| 1777583725 | 29.44° C | 50% | 1004 hPa | 0 mm | - | - | - |
| 1777582943 | 30° C | 50% | 1004 hPa | 0 mm | - | - | - |
| 1777582163 | 30.56° C | 50% | 1003 hPa | 0 mm | - | - | - |
| 1777581382 | 31.11° C | 50% | 1003 hPa | 0 mm | - | - | - |
| 1777580602 | 30.56° C | 47% | 1003 hPa | 0 mm | - | - | - |
| 1777579820 | 31.11° C | 47% | 1003 hPa | 0 mm | - | - | - |
| 1777579039 | 31.67° C | 47% | 1003 hPa | 0 mm | - | - | - |
| 1777578259 | 30.56° C | 50% | 1004 hPa | 0 mm | - | - | - |
| 1777577478 | 31.11° C | 50% | 1004 hPa | 0 mm | - | - | - |
| 1777576697 | 31.67° C | 50% | 1004 hPa | 0 mm | - | - | - |
| 1777575917 | 31.11° C | 49% | 1004 hPa | 0 mm | - | - | - |
| 1777575136 | 31.11° C | 47% | 1004 hPa | 0 mm | - | - | - |
| 1777574356 | 31.67° C | 47% | 1005 hPa | 0 mm | - | - | - |
| 1777573575 | 30.56° C | 51% | 1006 hPa | 0 mm | - | - | - |
| 1777572795 | 31.11° C | 51% | 1006 hPa | 0 mm | - | - | - |
| 1777572009 | 30.56° C | 50% | 1006 hPa | 0 mm | - | - | - |
| 1777571226 | 30° C | 52% | 1006 hPa | 0 mm | - | - | - |
| 1777570446 | 30.56° C | 52% | 1007 hPa | 0 mm | - | - | - |
* Rain latest hour (hover to see other rain measurements)
** Current wind speed in m/s (hover to see current wind gust speed)